Location: Grandview
(34.8900°N, 117.1058°W)
Time: 06:35:08
(UTC-07:00)

Vanguard 1 Rocket - Visible Passes

Search period start: 20 June 2018 00:00
Search period end: 30 June 2018 00:00
Orbit: 653 x 4224 km, 34.3° (Epoch: 19 June)

Date Brightness Start Highest point End Pass type
(mag) Time Alt. Az. Time Alt. Az. Time Alt. Az.
20 Jun 9.0 22:24:07 10° W 22:31:41 49° SSW 22:36:59 33° SSE visible
21 Jun 10.5 00:51:11 10° WSW 00:54:12 17° WSW 00:54:12 17° WSW visible
21 Jun 8.4 21:13:38 10° W 21:19:58 60° SSW 21:29:14 17° ESE visible
21 Jun 9.8 23:38:56 10° W 23:46:27 29° SSW 23:46:27 29° SSW visible
22 Jun 9.2 22:27:44 10° W 22:34:56 38° SSW 22:38:47 31° SSE visible
23 Jun 8.6 21:17:05 10° W 21:23:12 49° SSW 21:31:10 18° SE visible
23 Jun 10.1 23:43:17 10° WSW 23:48:25 21° SW 23:48:25 21° SW visible
24 Jun 9.5 22:31:33 10° W 22:38:14 29° SSW 22:40:52 26° S visible
25 Jun 8.8 21:20:40 10° W 21:26:29 38° SSW 21:33:22 18° SE visible
25 Jun 10.4 23:48:40 10° WSW 23:50:37 13° SW 23:50:37 13° SW visible
26 Jun 9.8 22:35:49 10° WSW 22:41:34 21° SSW 22:43:10 20° SSW visible
27 Jun 9.2 21:24:27 10° W 21:29:48 28° SSW 21:35:46 16° SSE visible
28 Jun 10.1 22:41:07 10° SW 22:44:58 13° SSW 22:45:40 13° SSW visible
29 Jun 9.5 21:28:38 10° WSW 21:33:09 19° SSW 21:38:21 12° SSE visible
